Tracking 19199 objects as of 25-Jun-2018
HD Live streaming from Space Station
objects crossing your sky now

CZ-4B DEB

Track CZ-4B DEB now!
10-day predictions


NORAD ID: 37580
Int'l Code: 1999-025EKD
Perigee: 790.9 km
Apogee: 975.7 km
Inclination: 99.1 °
Period: 102.5 minutes
Semi major axis: 7254 km
RCS: 0.0014 m2 (small)
Launch date: May 10, 1999
Source: People's Republic of China (PRC)
Launch site: Taiyaun Space Center, China (TSC)

Note: This is SATELLITE DEBRIS
aabbcc
Your satellite tracking list
Your tracking list is empty




NASA's NSSDC Master Catalog

Two Line Element Set (TLE):
1 37580U 99025EKD 18175.28707269 +.00000331 +00000-0 +21752-3 0  9998
2 37580 099.1339 194.9460 0127415 269.8484 151.4551 14.05113578768078
Source of the keplerian elements: AFSPC